Terminal Aerodrome Forecast
Issued by NWS Wilmington, OH

Current Version | Previous Version | Graphics & Text | Print | Product List | Glossary On
Versions: 1 2 3 4 5 6 7 8 9 10 11 12 13 14 15 16 17 18 19 20 21 22 23 24 25 26 27
105
FTUS41 KILN 281038 AAB
TAFILN
TAF AMD
KILN 281038Z 2811/2906 18004KT 5SM BR BKN025
      TEMPO 2811/2813 OVC012
     FM281400 19008KT P6SM BKN035
     FM282200 23012KT P6SM VCTS BKN040CB
     FM290200 26008KT P6SM BKN100=

USA.gov is the U.S. government's official web portal to all federal, state and local government web resources and services.